Regional Weather Roundup
Issued by NWS

Home | Current Version | Previous Version | Graphics & Text | Print | Product List | Glossary On
Versions: 1 2 3 4 5 6 7 8 9 10 11 12 13 14 15 16 17 18 19 20 21 22 23 24 25 26 27 28 29 30 31 32 33 34 35 36 37 38 39 40 41 42 43 44 45 46 47 48 49 50
000
ASUS43 KOAX 022202
RWRNE

WEATHER ROUNDUP FOR NEBRASKA
NATIONAL WEATHER SERVICE OMAHA NE
500 PM CDT MON MAY 02 2016

NOTES: SATELLITE DATA IS BEING USED TO AUGMENT CLOUD COVER ABOVE
       12000 FEET.
       "FAIR" INDICATES FEW OR NO CLOUDS BELOW 12,000 FEET WITH NO
       SIGNIFICANT WEATHER AND/OR OBSTRUCTIONS TO VISIBILITY.

  * THESE STATIONS DO NOT REPORT WEATHER SUCH AS RAIN...SNOW OR FOG.

NEZ001>004-019>022-054>056-022300-
NEBRASKA PANHANDLE

CITY           SKY/WX    TMP DP  RH WIND       PRES   REMARKS
SCOTTSBLUFF    PTSUNNY   64  33  31 W16       30.04F
ALLIANCE       MOSUNNY   62  31  31 N14       30.03F
CHADRON        CLOUDY    63  36  36 E16       30.02F
KIMBALL        SUNNY     58  26  29 NW14G22   30.10F
SIDNEY         SUNNY     59  24  26 NW13G20   30.10F
$$

NEZ057>060-069>072-079>082-022300-
SOUTHWEST NEBRASKA

CITY           SKY/WX    TMP DP  RH WIND       PRES   REMARKS
NORTH PLATTE   CLOUDY    59  33  37 NW12      30.06F
IMPERIAL       CLOUDY    61  31  32 NW13      30.08F
LEXINGTON      CLOUDY    60  37  42 CALM      30.06F
MCCOOK         PTSUNNY   61  35  37 NW6       30.06F
$$

NEZ005>010-023>029-035>040-094-022300-
NORTH CENTRAL NEBRASKA

CITY           SKY/WX    TMP DP  RH WIND       PRES   REMARKS
VALENTINE      CLOUDY    61  29  29 NW8       30.02F
AINSWORTH      LGT RAIN  55  40  58 SW8G16    30.05S
BROKEN BOW     CLOUDY    59  33  37 S3        30.05F
ORD            CLOUDY    58  36  43 VRB5      30.05F
$$

NEZ041-046>049-061>064-073>077-083>087-022300-
SOUTH CENTRAL NEBRASKA

CITY           SKY/WX    TMP DP  RH WIND       PRES   REMARKS
GRAND ISLAND   CLOUDY    59  35  40 CALM      30.08F
AURORA         CLOUDY    60  37  43 W6        30.08S
HASTINGS       MOSUNNY   58  38  47 NW3       30.07F
KEARNEY *      CLOUDY    57  34  41 SE5       30.08F
YORK           CLOUDY    59  37  44 NW5       30.08F
$$

NEZ011>018-030>034-042>045-022300-
NORTHEAST NEBRASKA

CITY           SKY/WX    TMP DP  RH WIND       PRES   REMARKS
NORFOLK        CLOUDY    61  37  41 W5        30.04F
ALBION         PTSUNNY   60  35  39 NW5       30.06F
BLAIR          PTSUNNY   63  40  41 W7        30.05F
COLUMBUS *     CLOUDY    61  34  36 NW3       30.07F
FREMONT        MOSUNNY   61  36  38 CALM      30.06F
TEKAMAH        SUNNY     63  37  38 CALM      30.05F
$$

NEZ050>053-065>068-078-088>093-022300-
SOUTHEAST NEBRASKA

CITY           SKY/WX    TMP DP  RH WIND       PRES   REMARKS
LINCOLN        PTSUNNY   65  35  33 NE6       30.07F
OMAHA EPPLEY   PTSUNNY   64  38  38 NW5       30.05F
BEATRICE       CLOUDY    60  39  45 NE3       30.06F
FALLS CITY     SUNNY     62  40  44 CALM      30.06F
$$

NEZ044-045-051>053-067-022300-
OMAHA AREA

CITY           SKY/WX    TMP DP  RH WIND       PRES   REMARKS
OMAHA EPPLEY   PTSUNNY   64  38  38 NW5       30.05F
BLAIR          PTSUNNY   63  40  41 W7        30.05F
FREMONT        MOSUNNY   61  36  38 CALM      30.06F
$$




USA.gov is the U.S. government's official web portal to all federal, state and local government web resources and services.